TimeEST,TemperatureF,Dew PointF,Humidity,Sea Level PressureIn,VisibilityMPH,Wind Direction,Wind SpeedMPH,Gust SpeedMPH,PrecipitationIn,Events,Conditions,WindDirDegrees,DateUTC
12:15 AM,70.3,59.0,67,30.05,10.0,SSW,5.8,-,N/A,,Overcast,210,2013-01-16 05:15:00
12:35 AM,69.8,59.4,69,30.05,10.0,SSW,4.6,-,N/A,,Mostly Cloudy,210,2013-01-16 05:35:00
1:15 AM,67.8,59.9,76,30.04,10.0,SSW,4.6,-,N/A,,Scattered Clouds,210,2013-01-16 06:15:00
1:35 AM,67.1,60.3,79,30.04,10.0,SW,4.6,-,N/A,,Clear,220,2013-01-16 06:35:00
1:55 AM,66.4,60.4,81,30.04,10.0,Calm,Calm,-,N/A,,Clear,0,2013-01-16 06:55:00
2:15 AM,63.7,59.5,86,30.04,10.0,Calm,Calm,-,N/A,,Clear,0,2013-01-16 07:15:00
2:35 AM,64.9,60.4,85,30.04,10.0,SSW,3.5,-,N/A,,Mostly Cloudy,210,2013-01-16 07:35:00
2:55 AM,63.0,59.7,89,30.03,10.0,South,4.6,-,N/A,,Scattered Clouds,190,2013-01-16 07:55:00
3:15 AM,62.6,59.5,90,30.03,10.0,South,4.6,-,N/A,,Clear,180,2013-01-16 08:15:00
3:35 AM,62.8,60.1,91,30.03,10.0,South,4.6,-,N/A,,Clear,190,2013-01-16 08:35:00
3:55 AM,63.0,60.8,93,30.03,10.0,SSW,5.8,-,N/A,,Clear,200,2013-01-16 08:55:00
4:15 AM,63.0,60.8,93,30.03,10.0,SSW,5.8,-,N/A,,Scattered Clouds,200,2013-01-16 09:15:00
4:35 AM,63.1,61.0,93,30.02,10.0,SSW,4.6,-,N/A,,Mostly Cloudy,210,2013-01-16 09:35:00
4:55 AM,63.5,61.2,92,30.02,10.0,SSW,5.8,-,N/A,,Overcast,200,2013-01-16 09:55:00
5:15 AM,63.5,61.5,93,30.02,10.0,SSW,4.6,-,N/A,,Overcast,200,2013-01-16 10:15:00
5:35 AM,63.9,61.7,93,30.02,10.0,SSW,3.5,-,N/A,,Overcast,210,2013-01-16 10:35:00
5:55 AM,64.2,61.3,90,30.02,10.0,SSW,10.4,-,N/A,,Overcast,200,2013-01-16 10:55:00
6:15 AM,64.4,61.3,90,30.01,10.0,SSW,9.2,-,N/A,,Overcast,200,2013-01-16 11:15:00
7:35 AM,63.7,61.2,91,30.04,10.0,SSW,4.6,-,N/A,,Overcast,200,2013-01-16 12:35:00
7:55 AM,64.0,61.7,92,30.05,10.0,SW,4.6,-,N/A,,Overcast,220,2013-01-16 12:55:00
8:15 AM,64.6,61.7,90,30.06,10.0,SSW,4.6,-,N/A,,Overcast,200,2013-01-16 13:15:00
8:35 AM,64.9,61.7,89,30.06,10.0,SSW,5.8,-,N/A,,Overcast,210,2013-01-16 13:35:00
8:55 AM,66.2,61.9,86,30.06,10.0,SSW,4.6,-,N/A,,Mostly Cloudy,210,2013-01-16 13:55:00
9:15 AM,66.6,61.9,85,30.07,10.0,SW,5.8,-,N/A,,Mostly Cloudy,230,2013-01-16 14:15:00
9:35 AM,68.0,62.1,81,30.07,10.0,SW,9.2,-,N/A,,Mostly Cloudy,220,2013-01-16 14:35:00
9:55 AM,70.0,62.1,76,30.07,10.0,SW,6.9,-,N/A,,Scattered Clouds,220,2013-01-16 14:55:00
10:15 AM,71.6,61.9,71,30.08,10.0,SSW,9.2,-,N/A,,Scattered Clouds,200,2013-01-16 15:15:00
10:35 AM,73.6,61.7,66,30.07,10.0,SSW,10.4,-,N/A,,Scattered Clouds,210,2013-01-16 15:35:00
10:55 AM,74.8,61.7,64,30.06,10.0,SSW,9.2,-,N/A,,Clear,210,2013-01-16 15:55:00
11:15 AM,75.9,61.5,61,30.05,10.0,SW,9.2,17.3,N/A,,Scattered Clouds,230,2013-01-16 16:15:00
11:35 AM,77.0,61.2,58,30.03,10.0,SSW,11.5,17.3,N/A,,Scattered Clouds,200,2013-01-16 16:35:00
11:55 AM,78.4,61.2,55,30.02,10.0,SSW,10.4,-,N/A,,Scattered Clouds,200,2013-01-16 16:55:00
12:15 PM,78.6,61.3,55,30.02,10.0,WSW,11.5,18.4,N/A,,Mostly Cloudy,250,2013-01-16 17:15:00
12:35 PM,80.6,61.5,52,30.00,10.0,SW,10.4,16.1,N/A,,Mostly Cloudy,220,2013-01-16 17:35:00
12:55 PM,80.8,61.5,52,29.99,10.0,WSW,9.2,16.1,N/A,,Mostly Cloudy,250,2013-01-16 17:55:00
1:15 PM,81.3,61.2,50,29.99,10.0,SW,9.2,16.1,N/A,,Scattered Clouds,220,2013-01-16 18:15:00
1:35 PM,81.3,60.6,49,29.98,10.0,SW,5.8,17.3,N/A,,Clear,220,2013-01-16 18:35:00
1:55 PM,81.5,60.8,49,29.97,10.0,SSW,10.4,-,N/A,,Clear,200,2013-01-16 18:55:00
2:15 PM,81.1,61.0,50,29.96,10.0,SSW,11.5,17.3,N/A,,Clear,200,2013-01-16 19:15:00
2:35 PM,79.9,61.3,53,29.96,10.0,SW,6.9,-,N/A,,Mostly Cloudy,220,2013-01-16 19:35:00
2:55 PM,81.9,60.8,49,29.97,10.0,SSW,9.2,-,N/A,,Mostly Cloudy,210,2013-01-16 19:55:00
3:15 PM,81.5,60.1,48,29.97,10.0,SW,6.9,16.1,N/A,,Mostly Cloudy,230,2013-01-16 20:15:00
3:35 PM,81.3,59.2,47,29.97,10.0,South,9.2,16.1,N/A,,Scattered Clouds,190,2013-01-16 20:35:00
3:55 PM,80.8,59.5,48,29.97,10.0,SSW,8.1,-,N/A,,Mostly Cloudy,200,2013-01-16 20:55:00
4:15 PM,79.2,59.5,51,29.97,10.0,South,8.1,-,N/A,,Scattered Clouds,190,2013-01-16 21:15:00
4:35 PM,80.1,59.9,50,29.97,10.0,SSW,10.4,-,N/A,,Scattered Clouds,200,2013-01-16 21:35:00
4:55 PM,79.3,60.3,52,29.96,10.0,South,9.2,-,N/A,,Scattered Clouds,170,2013-01-16 21:55:00
5:15 PM,78.1,61.0,56,29.97,10.0,South,6.9,-,N/A,,Scattered Clouds,170,2013-01-16 22:15:00
5:35 PM,76.1,61.7,61,29.98,10.0,South,4.6,-,N/A,,Scattered Clouds,180,2013-01-16 22:35:00
5:55 PM,75.2,61.9,63,29.97,10.0,SSE,4.6,-,N/A,,Mostly Cloudy,160,2013-01-16 22:55:00
6:15 PM,74.3,62.1,65,29.98,10.0,South,4.6,-,N/A,,Mostly Cloudy,170,2013-01-16 23:15:00
6:35 PM,74.3,62.1,65,29.98,10.0,South,5.8,-,N/A,,Overcast,180,2013-01-16 23:35:00
6:55 PM,72.9,61.9,68,29.98,10.0,South,4.6,-,N/A,,Mostly Cloudy,180,2013-01-16 23:55:00
7:15 PM,71.8,61.5,70,29.99,10.0,South,6.9,-,N/A,,Scattered Clouds,190,2013-01-17 00:15:00
7:35 PM,71.8,61.2,69,29.99,10.0,SSW,4.6,-,N/A,,Scattered Clouds,200,2013-01-17 00:35:00
7:55 PM,72.9,61.0,66,30.00,10.0,SSW,5.8,-,N/A,,Scattered Clouds,200,2013-01-17 00:55:00
8:15 PM,72.5,61.0,67,30.01,10.0,SSW,4.6,-,N/A,,Mostly Cloudy,210,2013-01-17 01:15:00
8:35 PM,72.5,61.0,67,30.01,10.0,SSW,5.8,-,N/A,,Mostly Cloudy,200,2013-01-17 01:35:00
8:55 PM,72.9,61.3,67,30.00,10.0,SSW,9.2,-,N/A,,Overcast,210,2013-01-17 01:55:00
9:15 PM,72.9,61.3,67,30.00,10.0,SSW,8.1,-,N/A,,Overcast,210,2013-01-17 02:15:00
9:35 PM,72.3,61.7,69,30.00,10.0,SSW,6.9,-,N/A,,Overcast,210,2013-01-17 02:35:00
9:55 PM,71.6,61.7,71,30.00,10.0,SW,3.5,-,N/A,,Overcast,220,2013-01-17 02:55:00
10:15 PM,71.1,61.7,72,30.01,10.0,SW,5.8,-,N/A,,Overcast,230,2013-01-17 03:15:00
10:35 PM,71.2,62.1,73,30.01,10.0,WSW,6.9,-,N/A,Rain,Light Rain,240,2013-01-17 03:35:00
10:55 PM,70.9,63.0,76,30.00,10.0,WSW,5.8,-,N/A,,Overcast,240,2013-01-17 03:55:00
11:15 PM,70.3,63.5,79,30.01,10.0,WSW,5.8,-,N/A,Rain,Light Rain,250,2013-01-17 04:15:00
11:35 PM,69.1,64.2,84,30.00,10.0,Calm,Calm,-,N/A,,Overcast,0,2013-01-17 04:35:00
11:55 PM,68.4,64.4,87,30.00,7.0,Calm,Calm,-,N/A,Rain,Light Rain,0,2013-01-17 04:55:00